Location: Mainz-Finthen
(49.9906°N, 8.1713°E)
Time: 07:15:32
(UTC+00:00)

N. Korean satellite - Pass Details

Date: 02 December 2022
Orbit: 407 x 442 km, 97.3° (Epoch: 04 February)

Event Time Altitude Azimuth Distance (km) Brightness Sun altitude
Rises 04:47:13 0° 14° (NNE) 2,528 10.3 -21.3°
Reaches altitude 10° 04:49:18 10° 17° (NNE) 1,643 9.3 -20.9°
Maximum altitude 04:52:50 72° 102° (ESE) 497 6.7 -20.4°
Drops below altitude 10° 04:56:17 10° 187° (S) 1,610 9.2 -19.8°
Sets 04:58:19 0° 190° (S) 2,472 10.2 -19.5°
